STARLINK-32740, 62754

Orbit data source: Space-Track

STARLINK-32740, 62754 is a payload satellite owned by SpaceX/Seattle (US) in LEO that was launched on Tue, 21 Jan 2025 UTC via an FALCON 9 launch vehicle from the Air Force Eastern Test Range (AFETR). Payload-class satellites include a variety of spacecraft equipped with specific instruments for various scientific and technological missions. These include communications satellites like Starlink; space stations such as the ISS; scientific satellites like the Hubble; Earth observation satellites from companies like Planet Labs, Umbra, and HawkEye 360; GPS; miniature CubeSats for education and research; and military/defense satellites.

Loading next visibility...
Identifier
62754, 2025-014V
Orbit
LEO
Country
Flag of USUS
Related business
Manufacturer
SpaceX/Seattle
Mission
Operational Commercial Communications
Bus & Motor
STARLINK V2M, Unknown motor
Mass
730 kg wet, ~700 kg dry
Launch date (UTC)
2025-01-21 (1 year ago)
Launch vehicle
FALCON 9
Launch site
Air Force Eastern Test Range (AFETR)
Object type
Payload
Rocket body
Debris
Shape & HBR
Box + 2 Pan, 17.7 m
Radar Cross Section
33.884 m², Large (>1 m²)

Expand to show TLE details & history
Last TLE update: 12 hours ago

TLE from 12 hours ago
0 STARLINK-32740
1 62754U 25014V   26171.35726302  .00019352  00000-0  71068-3 0  9996
2 62754  42.9990 294.1878 0001028 270.7282  89.3452 15.27590767 78967
Epoch: 2026-06-20T08:34Z
TLE epoch observation values (Epoch: 2026-06-20T08:34:27.524Z)
Latitude
-0.00003°
Longitude
-102.99996°
Altitude
482.784 km
Speed
7.626 km/s
True Right ascension
19h 36m 45s
True Declination
0° 00' 00"
Sunlit
Object was in full shadow at epoch
Visualization orbit readout
Latitude
Unknown
Longitude
Unknown
Altitude
Unknown
Speed
Unknown
Apparent Right ascension
Unknown
Apparent Declination
Unknown
Sunlit
N/A
Visualization observer readout
Local Sidereal Time
07:23:55
Azimuth
Unknown
Elevation
Unknown
Doppler factor
Unknown
Orbital elements
Apogee altitude
485.668 km
Perigee altitude
484.257 km
Semi-major axis
6,863.099 km
Eccentricity
0.0001
Inclination
42.999°
RAAN
294.1878°
Arg. of periapsis
270.7282°
True anomaly
89.35698°
Mean anomaly
89.3452°
Eccentric anomaly
89.35109°
Mean motion
3.81736 °/min
Orbital period
94.31 mins
BSTAR
0.00071068
Loading maneuver chart data...
Computing Atmospheric mass density...
Loading historical data...
Loading historical data...
Loading historical data...
Loading historical data...
Loading historical data...
Loading historical data...
Loading historical data...

Documentation

Showing up to 5 results
|